Location: ??????
(55.7522°N, 37.6156°E)
Time: 18:30:37
(UTC+00:00)

USA 229 DEB - Pass Details

Date: 14 June 2025
Orbit: 852 x 1359 km, 63.4° (Epoch: 26 June)

Event Time Altitude Azimuth Distance (km) Brightness Sun altitude
Rises 22:21:26 0° 309° (NW) 3,881 7.0 -10.2°
Reaches altitude 10° 22:23:58 10° 307° (NW) 2,992 6.4 -10.1°
Maximum altitude 22:31:10 75° 225° (SW) 1,262 4.0 -9.9°
Drops below altitude 10° 22:39:13 10° 142° (SE) 3,321 5.9 -9.6°
Sets 22:42:10 0° 141° (SE) 4,330 6.5 -9.5°
